VK4VP-5 Buderim QLD AU current weather conditions

sailwx.info

Wind from 138

Air temperature 20.6° C
Dewpoint 16.0° C

Last reported at 2017-Oct-22 07:55 UTC.
Time now 2017-Oct-22 08:18 UTC

Location: S 26°42' E 153°05'.
View on Google Maps.

See reports from other nearby stations

  
Tides and Currents Weather Stations Pressure Air Temp Water Temp Dewpoint Dewpoint Depression Visibility Wind Speed Wind Dir Waves Ship Positions
date/time (UTC)wind fromknots sea level pressurealtimeterstation pressurevisibilityair tempwater tempwave heightnotes
2017-Oct-22 07:55 138 20.6
2017-Oct-22 07:45 138 20.6
2017-Oct-22 07:35 138 0 gusting 8 20.6
2017-Oct-22 07:25 138 21.1
2017-Oct-22 07:15 138 0 gusting 6 21.1
2017-Oct-22 07:05 138 21.7
2017-Oct-22 06:55 138 21.7
2017-Oct-22 06:45 138 0 gusting 6 21.7
2017-Oct-22 06:35 138 0 gusting 8 21.7
2017-Oct-22 06:25 139 0 gusting 7 21.7
2017-Oct-22 06:15 141 1 gusting 10 22.2
2017-Oct-22 06:05 142 0 gusting 8 22.2
2017-Oct-22 05:55 139 2 gusting 13 21.7
2017-Oct-22 05:45 137 1 gusting 10 22.2
2017-Oct-22 05:35 136 0 gusting 7 22.8
2017-Oct-22 05:25 135 1 gusting 12 22.2
2017-Oct-22 05:15 132 0 gusting 8 22.8
2017-Oct-22 05:05 132 2 gusting 8 22.2
2017-Oct-22 04:55 132 22.8
2017-Oct-22 04:45 128 2 gusting 12 22.2
2017-Oct-22 04:35 125 0 gusting 8 22.8
2017-Oct-22 04:25 126 1 gusting 8 22.2
2017-Oct-22 04:15 130 2 gusting 8 22.2
2017-Oct-22 04:05 127 2 gusting 10 22.2
2017-Oct-22 03:55 123 0 gusting 7 22.2
2017-Oct-22 03:45 118 2 gusting 8 22.2
2017-Oct-22 03:35 119 2 gusting 9 22.2
2017-Oct-22 03:25 125 1 gusting 9 22.2
2017-Oct-22 03:15 125 1 gusting 8 22.8
2017-Oct-22 03:05 127 1 gusting 9 22.8
2017-Oct-22 02:55 134 3 gusting 11 22.2
2017-Oct-22 02:45 133 5 gusting 10 22.2
2017-Oct-22 02:35 126 3 gusting 9 22.2
2017-Oct-22 02:25 133 3 gusting 11 22.2
2017-Oct-22 02:15 142 5 gusting 10 21.7
2017-Oct-22 02:05 149 3 gusting 10 22.2
2017-Oct-22 01:55 153 3 gusting 11 22.2
2017-Oct-22 01:45 157 3 gusting 9 22.2
2017-Oct-22 01:35 161 3 gusting 14 22.2
2017-Oct-22 01:25 172 1 gusting 10 22.2
2017-Oct-22 01:15 174 3 gusting 9 22.2
2017-Oct-22 01:05 183 1 gusting 9 22.2
2017-Oct-22 00:55 184 1 gusting 7 21.7
2017-Oct-22 00:45 185 2 gusting 8 22.2
2017-Oct-22 00:35 185 1 gusting 10 21.7
2017-Oct-22 00:25 184 2 gusting 8 21.7
2017-Oct-22 00:15 181 5 gusting 12 21.1
2017-Oct-22 00:05 164 3 gusting 10 21.1
2017-Oct-21 23:55 172 5 gusting 14 21.1
2017-Oct-21 23:45 194 5 gusting 11 20.6
2017-Oct-21 23:35 189 6 gusting 11 20.6
2017-Oct-21 23:25 189 6 gusting 13 20.6
2017-Oct-21 23:15 196 6 gusting 12 20.6
2017-Oct-21 23:05 195 5 gusting 12 20.0
2017-Oct-21 22:55 197 6 gusting 14 20.0
2017-Oct-21 22:45 191 3 gusting 12 19.4
2017-Oct-21 22:35 200 5 gusting 13 19.4
2017-Oct-21 22:25 198 3 gusting 13 19.4
2017-Oct-21 22:15 183 5 gusting 10 18.9
2017-Oct-21 22:05 187 3 gusting 9 18.9
2017-Oct-21 21:55 191 2 gusting 9 18.3
2017-Oct-21 21:45 194 3 gusting 9 18.3
2017-Oct-21 21:35 192 1 gusting 8 17.8
2017-Oct-21 21:25 176 3 gusting 9 17.8
2017-Oct-21 21:15 165 1 gusting 7 17.2
2017-Oct-21 21:05 179 2 gusting 8 16.7
2017-Oct-21 20:55 185 2 gusting 8 16.7
2017-Oct-21 20:45 184 0 gusting 6 16.1
2017-Oct-21 20:35 184 0 gusting 3 15.6
2017-Oct-21 20:25 185 0 gusting 6 15.0
2017-Oct-21 20:15 185 0 gusting 6 14.4
2017-Oct-21 20:05 185 0 gusting 3 14.4
2017-Oct-21 19:55 185 13.9
2017-Oct-21 19:45 185 13.9
2017-Oct-21 19:35 185 13.3
2017-Oct-21 19:25 185 13.3
2017-Oct-21 19:15 185 13.3
2017-Oct-21 19:05 200 0 gusting 3 13.3
2017-Oct-21 18:55 209 0 gusting 2 13.3
2017-Oct-21 18:45 209 13.3
2017-Oct-21 18:35 209 13.3
2017-Oct-21 18:25 210 13.3
2017-Oct-21 18:15 210 13.3
2017-Oct-21 18:05 209 13.3
2017-Oct-21 17:55 210 13.3
2017-Oct-21 17:45 210 13.9
2017-Oct-21 17:35 209 13.9
2017-Oct-21 17:25 209 13.9
2017-Oct-21 17:15 209 13.9
2017-Oct-21 17:05 209 0 gusting 3 13.9
2017-Oct-21 16:55 209 13.9
2017-Oct-21 16:45 209 13.9
2017-Oct-21 16:35 209 0 gusting 5 14.4
2017-Oct-21 16:25 209 14.4
2017-Oct-21 16:15 210 13.9
2017-Oct-21 16:05 210 14.4
2017-Oct-21 15:55 14.4
2017-Oct-21 15:45 209 14.4
2017-Oct-21 15:35 210 14.4
2017-Oct-21 15:25 14.4
2017-Oct-21 15:15 14.4
2017-Oct-21 15:05 210 14.4
2017-Oct-21 14:55 209 0 gusting 6 15.0
2017-Oct-21 14:45 209 0 gusting 5 15.0
2017-Oct-21 14:35 210 0 gusting 3 15.0
2017-Oct-21 14:25 209 0 gusting 5 15.0
2017-Oct-21 14:15 209 0 gusting 3 15.0
2017-Oct-21 14:05 210 0 gusting 5 15.0
2017-Oct-21 13:55 210 0 gusting 5 15.0
2017-Oct-21 13:45 209 0 gusting 3 15.0
2017-Oct-21 13:35 210 0 gusting 3 15.0
2017-Oct-21 13:25 209 15.0
2017-Oct-21 13:15 209 15.0
2017-Oct-21 13:05 209 0 gusting 5 15.0
2017-Oct-21 12:55 209 15.6
2017-Oct-21 12:45 209 0 gusting 6 15.6
2017-Oct-21 12:35 209 0 gusting 3 15.6
2017-Oct-21 12:25 209 0 gusting 5 15.6
2017-Oct-21 12:15 209 15.6
2017-Oct-21 12:05 209 0 gusting 5 15.6
2017-Oct-21 11:55 210 1 gusting 6 15.6
2017-Oct-21 11:45 209 2 gusting 7 15.6
2017-Oct-21 11:35 209 2 gusting 8 15.6
2017-Oct-21 11:25 209 1 gusting 8 15.6
2017-Oct-21 11:15 210 1 gusting 7 15.6
2017-Oct-21 11:05 209 0 gusting 5 15.6
2017-Oct-21 10:55 209 15.6
2017-Oct-21 10:45 209 1 gusting 7 15.6
2017-Oct-21 10:35 209 1 gusting 8 15.6
2017-Oct-21 10:25 210 1 gusting 6 15.6
2017-Oct-21 10:15 209 1 gusting 6 15.6
2017-Oct-21 10:05 210 0 gusting 6 15.6
2017-Oct-21 09:55 209 2 gusting 8 15.6
2017-Oct-21 09:45 209 0 gusting 7 15.6
2017-Oct-21 09:35 210 0 gusting 6 15.6
2017-Oct-21 09:25 209 1 gusting 6 15.6
2017-Oct-21 09:15 209 15.6
2017-Oct-21 09:05 209 15.6
2017-Oct-21 08:55 210 15.6
2017-Oct-21 08:45 209 15.6
2017-Oct-21 08:35 210 0 gusting 5 15.6
2017-Oct-21 08:25 210 15.6
2017-Oct-21 08:15 208 1 gusting 8 15.6
2017-Oct-21 08:05 208 1 gusting 6 15.6
2017-Oct-21 07:55 208 2 gusting 6 15.6
2017-Oct-21 07:45 207 2 gusting 9 15.6
2017-Oct-21 07:35 207 2 gusting 9 15.6
2017-Oct-21 07:25 206 3 gusting 8 15.6
2017-Oct-21 07:15 207 3 gusting 8 15.6
2017-Oct-21 07:05 202 5 gusting 12 16.1
2017-Oct-21 06:55 200 3 gusting 9 16.1
2017-Oct-21 06:45 197 3 gusting 8 16.1
2017-Oct-21 06:35 195 6 gusting 13 16.1
2017-Oct-21 06:25 189 6 gusting 15 16.1
2017-Oct-21 06:15 193 3 gusting 14 16.7
2017-Oct-21 06:05 186 3 gusting 9 16.7
2017-Oct-21 05:55 182 3 gusting 11 16.7
2017-Oct-21 05:45 173 1 gusting 8 16.7
2017-Oct-21 05:35 170 3 gusting 8 16.7
2017-Oct-21 05:25 182 6 gusting 15 16.7
2017-Oct-21 05:15 178 6 gusting 17 16.7
2017-Oct-21 05:05 164 2 gusting 10 17.2
2017-Oct-21 04:55 165 3 gusting 12 17.8
2017-Oct-21 04:45 165 2 gusting 8 17.8
2017-Oct-21 04:35 167 5 gusting 14 17.8
2017-Oct-21 04:25 174 5 gusting 13 17.8
2017-Oct-21 04:15 176 1 gusting 9 17.8
2017-Oct-21 04:05 178 3 gusting 9 17.8
2017-Oct-21 03:55 187 5 gusting 11 18.3
2017-Oct-21 03:45 194 1 gusting 10 18.3
2017-Oct-21 03:35 198 2 gusting 8 18.3
2017-Oct-21 03:25 204 2 gusting 6 18.3
2017-Oct-21 03:15 204 1 gusting 6 18.3
2017-Oct-21 03:05 270 1 gusting 10 18.9
2017-Oct-21 02:55 323 18.9
2017-Oct-21 02:45 323 18.9
2017-Oct-21 02:35 323 18.9
2017-Oct-21 02:25 323 18.9
2017-Oct-21 02:15 323 18.9
2017-Oct-21 02:05 324 0 gusting 5 18.9
2017-Oct-21 01:55 324 18.9
2017-Oct-21 01:45 289 1 gusting 5 18.9
2017-Oct-21 01:35 281 1 gusting 6 18.3
2017-Oct-21 01:25 281 0 gusting 6 18.9
2017-Oct-21 01:15 281 1 gusting 5 18.9
2017-Oct-21 01:05 282 2 gusting 7 18.9
2017-Oct-21 00:55 291 0 gusting 8 18.9
2017-Oct-21 00:45 291 19.4
2017-Oct-21 00:35 291 18.9
2017-Oct-21 00:25 291 19.4
2017-Oct-21 00:15 291 1 gusting 6 19.4
2017-Oct-21 00:05 291 0 gusting 6 19.4
2017-Oct-20 23:55 291 19.4
2017-Oct-20 23:45 19.4
2017-Oct-20 23:35 291 19.4
2017-Oct-20 23:25 291 19.4
2017-Oct-20 23:15 291 19.4
2017-Oct-20 23:05 291 19.4
2017-Oct-20 22:55 290 19.4
2017-Oct-20 22:45 20.0
2017-Oct-20 22:35 20.0
2017-Oct-20 22:25 20.0
2017-Oct-20 22:15 302 20.0
2017-Oct-20 22:05 19.4
2017-Oct-20 21:55 19.4
2017-Oct-20 21:45 302 19.4
2017-Oct-20 21:35 302 19.4
2017-Oct-20 21:25 329 18.9
2017-Oct-20 21:15 329 18.9
2017-Oct-20 21:05 329 18.9
2017-Oct-20 20:55 329 18.9
2017-Oct-20 20:45 329 18.3
2017-Oct-20 20:35 330 18.3
2017-Oct-20 20:25 329 18.3
2017-Oct-20 20:15 330 18.3
2017-Oct-20 20:05 039 18.3
2017-Oct-20 19:55 18.3
2017-Oct-20 19:45 18.3
2017-Oct-20 19:35 18.3
2017-Oct-20 19:25 18.3
2017-Oct-20 19:15 17.8
2017-Oct-20 19:05 18.3
2017-Oct-20 18:55 041 18.3
2017-Oct-20 18:45 041 18.3
2017-Oct-20 18:35 18.3
2017-Oct-20 18:25 18.3
2017-Oct-20 18:15 041 18.3
2017-Oct-20 18:05 042 18.3
2017-Oct-20 17:55 042 18.3
2017-Oct-20 17:45 042 18.3
2017-Oct-20 17:35 042 18.3
2017-Oct-20 17:25 041 17.8
2017-Oct-20 17:15 041 17.2
2017-Oct-20 17:05 17.2
2017-Oct-20 16:55 17.2
2017-Oct-20 16:45 17.2
2017-Oct-20 16:35 17.2
2017-Oct-20 16:25 17.2
2017-Oct-20 16:15 17.2
2017-Oct-20 16:05 17.8
2017-Oct-20 15:55 17.8
2017-Oct-20 15:45 17.8
2017-Oct-20 15:35 18.3
2017-Oct-20 15:25 18.3
2017-Oct-20 15:15 042 18.3
2017-Oct-20 15:05 041 17.8
2017-Oct-20 14:55 17.8
2017-Oct-20 14:45 17.8
2017-Oct-20 14:35 17.8
2017-Oct-20 14:25 041 17.8
2017-Oct-20 14:15 041 17.8
2017-Oct-20 14:05 041 17.8
2017-Oct-20 13:55 17.8
2017-Oct-20 13:45 17.8
2017-Oct-20 13:35 17.8
2017-Oct-20 13:25 17.8
2017-Oct-20 13:15 17.8
2017-Oct-20 13:05 17.8
2017-Oct-20 12:55 17.8
2017-Oct-20 12:45 17.8
2017-Oct-20 12:35 18.3
2017-Oct-20 12:25 18.3
2017-Oct-20 12:15 18.3
2017-Oct-20 12:05 18.3
2017-Oct-20 11:55 041 18.9
2017-Oct-20 11:45 18.9
2017-Oct-20 11:35 19.4
2017-Oct-20 11:25 042 20.0
2017-Oct-20 11:15 041 20.6
2017-Oct-20 11:05 042 20.6
2017-Oct-20 10:55 20.6
2017-Oct-20 10:45 042 20.6
2017-Oct-20 10:35 041 20.6
2017-Oct-20 10:25 041 21.1
2017-Oct-20 10:15 041 21.1
2017-Oct-20 10:05 041 21.1
2017-Oct-20 09:55 042 21.1
2017-Oct-20 09:45 041 21.1
2017-Oct-20 09:35 041 0 gusting 5 21.1
2017-Oct-20 09:25 041 21.1
2017-Oct-20 09:15 041 21.7
2017-Oct-20 09:05 042 21.7
2017-Oct-20 08:55 042 21.7
2017-Oct-20 08:45 041 21.7
2017-Oct-20 08:35 041 21.7
2017-Oct-20 08:25 041 1 gusting 6 21.7
2017-Oct-20 08:15 041 1 gusting 6 22.2
2017-Oct-20 08:05 041 0 gusting 5 22.2